This demonstration page uses our WeatherBlox Daily Observations layout. Learn more.

Left ArrowRight Arrow

Hourly Observations for May 21, 2022

Temp ( °F °C ) Dew Point ( °F °C ) Humidity (%) Winds ( mph kmh ) Pressure ( in mb ) Visibility ( mi km ) Precip ( " mm )
12:15 am 00:15 Clear 47 8.5 34 1.2 60 60 N 12 19 30.08 1018 10 16 0.00 0.00
12:35 am 00:35 Partly Cloudy 47 8.2 34 1 61 61 N 10 17 30.09 1019 10 16 0.00 0.00
12:55 am 00:55 Partly Cloudy 47 8.1 33 0.8 60 60 N 12 19 30.10 1019 10 16 0.00 0.00
1:15 am 01:15 Partly Cloudy 46 8 33 0.6 60 60 N 10 17 30.11 1020 10 16 0.00 0.00
1:35 am 01:35 Clear 46 7.8 33 0.8 62 62 N 8 13 30.11 1020 10 16 0.00 0.00
1:55 am 01:55 Clear 46 7.7 34 0.9 62 62 N 8 13 30.11 1020 10 16 0.00 0.00
2:15 am 02:15 Clear 46 7.6 34 1.1 64 64 NNW 7 11 30.11 1020 10 16 0.00 0.00
2:35 am 02:35 Clear 45 7.4 35 1.4 66 66 NNW 8 13 30.12 1020 10 16 0.00 0.00
2:55 am 02:55 Clear 45 7.2 35 1.7 68 68 NNW 7 11 30.12 1020 10 16 0.00 0.00
3:15 am 03:15 Clear 45 7.2 35 1.8 69 69 NNW 9 15 30.12 1020 10 16 0.00 0.00
3:35 am 03:35 Clear 45 7 35 1.7 69 69 NNW 8 13 30.12 1020 10 16 0.00 0.00
3:55 am 03:55 Clear 45 7 35 1.4 68 68 NNW 9 15 30.12 1020 10 16 0.00 0.00
4:15 am 04:15 Clear 45 7 34 1.3 67 67 NNW 10 17 30.12 1020 10 16 0.00 0.00
4:35 am 04:35 Clear 45 7 35 1.4 68 68 NNW 8 13 30.13 1020 10 16 0.00 0.00
4:55 am 04:55 Clear 44 6.8 35 1.6 70 70 NNW 8 13 30.14 1021 10 16 0.00 0.00
5:15 am 05:15 Clear 44 6.7 35 1.8 71 71 NNW 8 13 30.14 1021 10 16 0.00 0.00
5:35 am 05:35 Clear 44 6.7 35 1.7 71 71 NNW 8 13 30.15 1021 10 16 0.00 0.00
5:55 am 05:55 Partly Cloudy 44 6.5 36 2 73 73 NNW 7 11 30.15 1021 10 16 0.00 0.00
6:15 am 06:15 Clear 44 6.5 35 1.7 72 72 NNW 8 13 30.16 1021 10 16 0.00 0.00
6:35 am 06:35 Sunny 44 6.5 35 1.8 72 72 NNW 8 13 30.17 1022 10 16 0.00 0.00
6:55 am 06:55 Sunny 44 6.5 35 1.5 71 71 NNW 12 19 30.20 1023 10 16 0.00 0.00
7:15 am 07:15 Sunny 44 6.5 35 1.5 71 71 N 10 17 30.20 1023 10 16 0.00 0.00
7:35 am 07:35 Sunny 44 6.6 35 1.6 71 71 N 12 19 30.21 1023 10 16 0.00 0.00
7:55 am 07:55 Sunny 44 6.6 35 1.6 71 71 N 13 20 30.22 1023 10 16 0.00 0.00
8:15 am 08:15 Sunny 44 6.6 35 1.7 71 71 N 15 24 30.23 1024 10 16 0.00 0.00
8:35 am 08:35 Mostly Cloudy with Drizzle 44 6.4 36 2.2 75 75 NNW 13 20 30.25 1024 10 16 0.00 0.00
8:55 am 08:55 Cloudy 44 6.4 35 1.9 73 73 N 9 15 30.25 1024 10 16 0.00 0.00
9:15 am 09:15 Partly Cloudy 44 6.9 35 1.8 70 70 N 9 15 30.25 1024 10 16 0.00 0.00
9:35 am 09:35 Sunny 45 7.2 35 1.8 69 69 N 12 19 30.26 1025 10 16 0.00 0.00
9:55 am 09:55 Partly Cloudy 46 7.8 36 2 67 67 N 10 17 30.26 1025 10 16 0.00 0.00
10:15 am 10:15 Partly Cloudy 47 8.1 36 2 66 66 N 10 17 30.26 1025 10 16 0.00 0.00
10:35 am 10:35 Partly Cloudy 48 8.7 35 1.9 63 63 NNW 7 11 30.25 1024 10 16 0.00 0.00
10:55 am 10:55 Mostly Cloudy 49 9.2 35 1.6 59 59 N 6 9 30.25 1024 10 16 0.00 0.00
11:15 am 11:15 Mostly Cloudy 49 9.5 34 1.1 56 56 NW 9 15 30.25 1024 10 16 0.00 0.00
11:35 am 11:35 Mostly Cloudy 49 9.3 33 0.4 54 54 N 8 13 30.25 1024 10 16 0.00 0.00
11:55 am 11:55 Mostly Cloudy 50 9.8 33 0.5 53 53 NW 10 17 30.25 1024 10 16 0.00 0.00
12:15 pm 12:15 Mostly Cloudy 50 10.1 33 0.4 51 51 NNW 12 19 30.25 1024 10 16 0.00 0.00
12:35 pm 12:35 Mostly Cloudy 51 10.3 32 0.1 50 50 NNW 14 22 30.25 1024 10 16 0.00 0.00
12:55 pm 12:55 Partly Cloudy 51 10.6 30 -1.3 44 44 NNW 12 19 30.25 1024 10 16 0.00 0.00
1:15 pm 13:15 Partly Cloudy 51 10.8 31 -0.5 46 46 NW 13 20 30.24 1024 10 16 0.00 0.00
1:35 pm 13:35 Mostly Cloudy 52 11.3 31 -0.6 44 44 NW 6 9 30.24 1024 10 16 0.00 0.00
1:55 pm 13:55 Mostly Cloudy 53 11.6 31 -0.5 43 43 N 10 17 30.23 1024 10 16 0.00 0.00
2:15 pm 14:15 Partly Cloudy 55 12.6 30 -1 39 39 NW 15 24 30.22 1023 10 16 0.00 0.00
2:35 pm 14:35 Partly Cloudy 54 12.3 29 -1.7 38 38 NNW 10 17 30.22 1023 10 16 0.00 0.00
2:55 pm 14:55 Partly Cloudy 53 11.4 28 -2.1 39 39 NNW 6 9 30.23 1024 10 16 0.00 0.00
3:15 pm 15:15 Mostly Cloudy 56 13.1 31 -0.3 40 40 NW 10 17 30.21 1023 10 16 0.00 0.00
3:35 pm 15:35 Cloudy 54 12 30 -1 41 41 NNE 12 19 30.21 1023 10 16 0.00 0.00
3:55 pm 15:55 Cloudy 54 12.4 31 -0.7 41 41 N 10 17 30.21 1023 10 16 0.00 0.00
4:15 pm 16:15 Mostly Cloudy 55 12.8 31 -0.4 40 40 NNW 9 15 30.21 1023 10 16 0.00 0.00
4:35 pm 16:35 Mostly Cloudy 56 13.6 31 -0.7 38 38 NW 9 15 30.20 1023 10 16 0.00 0.00
4:55 pm 16:55 Partly Cloudy 57 13.9 31 -0.4 38 38 NW 7 11 30.19 1022 10 16 0.00 0.00
5:15 pm 17:15 Partly Cloudy 57 13.8 29 -1.5 35 35 NNW 13 20 30.19 1022 10 16 0.00 0.00
5:35 pm 17:35 Partly Cloudy 58 14.2 28 -2.1 33 33 NNW 9 15 30.18 1022 10 16 0.00 0.00
5:55 pm 17:55 Partly Cloudy 58 14.5 29 -1.9 32 32 NW 14 22 30.18 1022 10 16 0.00 0.00
6:15 pm 18:15 Partly Cloudy 58 14.4 29 -1.8 33 33 NW 14 22 30.18 1022 10 16 0.00 0.00
6:35 pm 18:35 Mostly Cloudy 58 14.4 30 -1.3 34 34 NW 13 20 30.18 1022 10 16 0.00 0.00
6:55 pm 18:55 Mostly Cloudy 57 13.8 30 -1.3 36 36 NW 13 20 30.19 1022 10 16 0.00 0.00
7:15 pm 19:15 Partly Cloudy 55 12.8 28 -2.5 35 35 NW 8 13 30.20 1023 10 16 0.00 0.00
7:35 pm 19:35 Partly Cloudy 55 12.9 28 -2.1 36 36 NNW 10 17 30.20 1023 10 16 0.00 0.00
7:55 pm 19:55 Partly Cloudy 55 13 28 -2.1 35 35 N 8 13 30.21 1023 10 16 0.00 0.00
8:15 pm 20:15 Sunny 54 12.3 29 -1.8 38 38 NNW 8 13 30.22 1023 10 16 0.00 0.00
8:35 pm 20:35 Sunny 52 11.3 29 -1.5 41 41 N 6 9 30.24 1024 10 16 0.00 0.00
8:55 pm 20:55 Sunny 52 11.1 28 -2.2 40 40 NNE 5 7 30.25 1024 10 16 0.00 0.00
9:15 pm 21:15 Clear 49 9.3 29 -1.7 46 46 N 6 9 30.28 1025 10 16 0.00 0.00
9:35 pm 21:35 Clear 49 9.2 28 -2.2 45 45 NNE 5 7 30.29 1026 10 16 0.00 0.00
9:55 pm 21:55 Clear 47 8.3 29 -1.6 50 50 ENE 5 7 30.31 1026 10 16 0.00 0.00
10:15 pm 22:15 Clear 47 8.5 30 -1.2 51 51 E 5 7 30.31 1026 10 16 0.00 0.00
10:35 pm 22:35 Clear 45 7 29 -1.4 55 55 Calm 30.33 1027 10 16 0.00 0.00
10:55 pm 22:55 Clear 44 6.9 32 0.2 63 63 Calm 30.34 1027 10 16 0.00 0.00
11:15 pm 23:15 Clear 42 5.7 33 0.7 71 71 Calm 30.36 1028 10 16 0.00 0.00
11:35 pm 23:35 Clear 41 5.1 31 -0.3 68 68 Calm 30.37 1028 7 11 0.00 0.00
11:55 pm 23:55 Clear 42 5.3 31 -0.5 67 67 Calm 30.37 1028 10 16 0.00 0.00

Powered by AerisWeather